Terminal Aerodrome Forecast
Issued by NWS

Home | Current Version | Previous Version | Text Only | Print | Product List | Glossary On
Versions: 1 2 3 4 5 6 7 8 9 10 11 12 13 14 15 16 17 18 19
238
FTUS46 KSEW 232320
TAFHQM
TAF
KHQM 232320Z 2400/2424 23011KT P6SM OVC015
     FM240400 26009KT 2SM BR OVC007
     FM241500 24005KT P6SM OVC015
     FM241800 24009KT P6SM BKN025
     FM242100 25012KT P6SM BKN050=

USA.gov is the U.S. government's official web portal to all federal, state and local government web resources and services.